TimeGMT,TemperatureF,Dew PointF,Humidity,Sea Level PressureIn,VisibilityMPH,Wind Direction,Wind SpeedMPH,Gust SpeedMPH,PrecipitationIn,Events,Conditions,WindDirDegrees,DateUTC
12:20 AM,35.6,26.6,70,29.95,6.2,SSW,9.2,-,N/A,,Mostly Cloudy,210,2013-01-25 00:20:00
12:50 AM,35.6,26.6,70,29.95,6.2,SW,10.4,-,N/A,,Mostly Cloudy,220,2013-01-25 00:50:00
1:20 AM,35.6,26.6,70,29.95,6.2,Variable,4.6,-,N/A,,Mostly Cloudy,0,2013-01-25 01:20:00
1:50 AM,35.6,26.6,70,29.92,6.2,SSW,5.8,-,N/A,,Mostly Cloudy,210,2013-01-25 01:50:00
2:20 AM,35.6,26.6,70,29.92,6.2,NNW,4.6,-,N/A,,Mostly Cloudy,340,2013-01-25 02:20:00
2:50 AM,35.6,26.6,70,29.92,6.2,South,9.2,-,N/A,,Unknown,190,2013-01-25 02:50:00
3:20 AM,35.6,26.6,70,29.89,6.2,South,9.2,-,N/A,,Unknown,190,2013-01-25 03:20:00
3:50 AM,35.6,26.6,70,29.89,6.2,SW,9.2,-,N/A,,Unknown,220,2013-01-25 03:50:00
4:20 AM,35.6,26.6,70,29.86,6.2,SSW,5.8,-,N/A,,Mostly Cloudy,200,2013-01-25 04:20:00
4:50 AM,35.6,26.6,70,29.86,-9999.0,Calm,Calm,-,N/A,,Clear,0,2013-01-25 04:50:00
5:20 AM,35.6,26.6,70,29.86,-9999.0,Variable,2.3,-,N/A,,Clear,0,2013-01-25 05:20:00
5:50 AM,35.6,26.6,70,29.86,-9999.0,SW,6.9,-,N/A,,Clear,220,2013-01-25 05:50:00
6:20 AM,37.4,26.6,65,29.83,-9999.0,SSW,10.4,-,N/A,,Clear,210,2013-01-25 06:20:00
6:50 AM,35.6,28.4,75,29.83,6.2,SW,9.2,-,N/A,,Partly Cloudy,220,2013-01-25 06:50:00
7:20 AM,35.6,28.4,75,29.83,6.2,SW,6.9,-,N/A,,Mostly Cloudy,220,2013-01-25 07:20:00
7:50 AM,35.6,28.4,75,29.80,6.2,SW,10.4,-,N/A,,Scattered Clouds,230,2013-01-25 07:50:00
8:20 AM,35.6,28.4,75,29.80,5.0,WSW,6.9,-,N/A,Rain,Light Rain,240,2013-01-25 08:20:00
8:50 AM,35.6,32.0,87,29.80,5.0,Variable,3.5,-,N/A,Rain,Light Rain,0,2013-01-25 08:50:00
9:20 AM,35.6,32.0,87,29.77,6.2,South,11.5,-,N/A,,Mostly Cloudy,190,2013-01-25 09:20:00
9:50 AM,37.4,32.0,81,29.77,6.2,SSW,15.0,-,N/A,Rain,Light Rain,200,2013-01-25 09:50:00
10:20 AM,37.4,32.0,81,29.77,6.2,SSE,5.8,-,N/A,,Mostly Cloudy,160,2013-01-25 10:20:00
10:50 AM,39.2,32.0,75,29.74,6.2,Variable,3.5,-,N/A,,Partly Cloudy,0,2013-01-25 10:50:00
11:20 AM,39.2,32.0,75,29.74,6.2,Variable,3.5,-,N/A,Rain,Light Rain,0,2013-01-25 11:20:00
11:50 AM,37.4,32.0,81,29.71,6.2,SSE,5.8,-,N/A,Rain,Light Rain,160,2013-01-25 11:50:00
12:20 PM,39.2,32.0,75,29.68,6.2,SSE,8.1,-,N/A,,Mostly Cloudy,150,2013-01-25 12:20:00
12:50 PM,39.2,32.0,75,29.65,6.2,South,6.9,-,N/A,,Scattered Clouds,170,2013-01-25 12:50:00
1:20 PM,39.2,32.0,75,29.62,6.2,South,8.1,-,N/A,Rain,Light Rain,180,2013-01-25 13:20:00
1:50 PM,37.4,32.0,81,29.62,6.2,South,10.4,-,N/A,Rain,Light Rain,170,2013-01-25 13:50:00
2:20 PM,37.4,32.0,81,29.59,6.2,SSE,6.9,-,N/A,Rain,Light Rain,150,2013-01-25 14:20:00
2:50 PM,37.4,33.8,87,29.56,6.2,Variable,4.6,-,N/A,Rain,Light Rain,0,2013-01-25 14:50:00
3:20 PM,37.4,32.0,81,29.56,6.2,SE,4.6,-,N/A,Rain,Light Rain,140,2013-01-25 15:20:00
3:50 PM,37.4,32.0,81,29.53,5.6,Variable,3.5,-,N/A,Rain-Snow,Light Rain,0,2013-01-25 15:50:00
4:20 PM,37.4,33.8,87,29.50,4.3,SE,5.8,-,N/A,Rain-Snow,Light Rain,130,2013-01-25 16:20:00
4:50 PM,35.6,33.8,93,29.50,5.0,Variable,3.5,-,N/A,Rain,Light Rain,0,2013-01-25 16:50:00
5:20 PM,35.6,33.8,93,29.47,6.2,Variable,3.5,-,N/A,Rain,Light Rain,0,2013-01-25 17:20:00
5:50 PM,35.6,33.8,93,29.47,5.6,Variable,3.5,-,N/A,Rain,Light Rain,0,2013-01-25 17:50:00
6:20 PM,33.8,33.8,100,29.44,6.2,NNW,6.9,-,N/A,Rain,Light Rain,330,2013-01-25 18:20:00
6:50 PM,35.6,33.8,93,29.44,6.2,Variable,2.3,-,N/A,,Overcast,0,2013-01-25 18:50:00
7:20 PM,35.6,33.8,93,29.42,6.2,NE,4.6,-,N/A,,Mostly Cloudy,50,2013-01-25 19:20:00
7:50 PM,35.6,33.8,93,29.42,6.2,Variable,3.5,-,N/A,,Mostly Cloudy,0,2013-01-25 19:50:00
8:20 PM,35.6,33.8,93,29.42,6.2,NNE,3.5,-,N/A,,Mostly Cloudy,30,2013-01-25 20:20:00
8:50 PM,35.6,33.8,93,29.42,6.2,NE,2.3,-,N/A,,Mostly Cloudy,40,2013-01-25 20:50:00
9:20 PM,35.6,33.8,93,29.42,6.2,Variable,2.3,-,N/A,,Mostly Cloudy,0,2013-01-25 21:20:00
9:50 PM,35.6,33.8,93,29.39,6.2,Calm,Calm,-,N/A,,Mostly Cloudy,0,2013-01-25 21:50:00
10:20 PM,35.6,33.8,93,29.39,5.6,Variable,2.3,-,N/A,,Mostly Cloudy,0,2013-01-25 22:20:00
10:50 PM,35.6,33.8,93,29.39,5.0,Variable,3.5,-,N/A,Rain-Snow,Light Rain,0,2013-01-25 22:50:00
11:20 PM,35.6,33.8,93,29.39,5.6,WNW,2.3,-,N/A,Rain,Light Rain,300,2013-01-25 23:20:00
11:50 PM,35.6,33.8,93,29.39,5.6,Variable,2.3,-,N/A,Rain,Light Rain,0,2013-01-25 23:50:00